TimeCDT,TemperatureF,Dew PointF,Humidity,Sea Level PressureIn,VisibilityMPH,Wind Direction,Wind SpeedMPH,Gust SpeedMPH,PrecipitationIn,Events,Conditions,WindDirDegrees,DateUTC
12:13 AM,30.2,21.2,69,30.39,10.0,WNW,3.5,-,N/A,,Clear,290,2012-10-12 05:13:00
12:33 AM,30.2,21.2,69,30.40,10.0,WNW,4.6,-,N/A,,Clear,290,2012-10-12 05:33:00
12:52 AM,28.4,19.4,69,30.40,10.0,WNW,3.5,-,N/A,,Clear,300,2012-10-12 05:52:00
1:13 AM,26.6,19.4,74,30.40,10.0,West,3.5,-,N/A,,Clear,280,2012-10-12 06:13:00
1:33 AM,26.6,19.4,74,30.41,10.0,Calm,Calm,-,N/A,,Clear,0,2012-10-12 06:33:00
1:53 AM,24.8,19.4,80,30.41,10.0,Calm,Calm,-,N/A,,Clear,0,2012-10-12 06:53:00
2:13 AM,23.0,19.4,86,30.42,10.0,Calm,Calm,-,N/A,,Clear,0,2012-10-12 07:13:00
2:33 AM,21.2,19.4,93,30.42,10.0,Calm,Calm,-,N/A,,Clear,0,2012-10-12 07:33:00
2:53 AM,21.2,17.6,86,30.42,10.0,Calm,Calm,-,N/A,,Clear,0,2012-10-12 07:53:00
3:13 AM,21.2,19.4,93,30.42,10.0,Calm,Calm,-,N/A,,Clear,0,2012-10-12 08:13:00
3:33 AM,19.4,17.6,93,30.41,10.0,Calm,Calm,-,N/A,,Clear,0,2012-10-12 08:33:00
3:52 AM,21.2,19.4,93,30.41,10.0,Calm,Calm,-,N/A,,Clear,0,2012-10-12 08:52:00
4:13 AM,19.4,17.6,93,30.42,10.0,Calm,Calm,-,N/A,,Clear,0,2012-10-12 09:13:00
4:33 AM,21.2,19.4,93,30.43,10.0,Calm,Calm,-,N/A,,Clear,0,2012-10-12 09:33:00
4:52 AM,19.4,17.6,93,30.43,10.0,Calm,Calm,-,N/A,,Clear,0,2012-10-12 09:52:00
5:13 AM,19.4,17.6,93,30.43,10.0,Calm,Calm,-,N/A,,Clear,0,2012-10-12 10:13:00
5:52 AM,19.4,17.6,93,30.42,7.0,Calm,Calm,-,N/A,,Clear,0,2012-10-12 10:52:00
6:13 AM,19.4,17.6,93,30.42,4.0,Calm,Calm,-,N/A,,Clear,0,2012-10-12 11:13:00
6:33 AM,19.4,17.6,93,30.42,7.0,Calm,Calm,-,N/A,,Clear,0,2012-10-12 11:33:00
6:52 AM,19.4,17.6,93,30.43,5.0,Calm,Calm,-,N/A,,Clear,0,2012-10-12 11:52:00
7:13 AM,19.4,19.4,100,30.43,10.0,Calm,Calm,-,N/A,,Clear,0,2012-10-12 12:13:00
7:32 AM,19.4,19.4,100,30.42,7.0,Calm,Calm,-,N/A,,Clear,0,2012-10-12 12:32:00
7:53 AM,19.4,17.6,93,30.43,4.0,Calm,Calm,-,N/A,,Clear,0,2012-10-12 12:53:00
8:12 AM,21.2,19.4,93,30.43,7.0,Calm,Calm,-,N/A,,Clear,0,2012-10-12 13:12:00
8:33 AM,24.8,21.2,86,30.43,5.0,Calm,Calm,-,N/A,,Clear,0,2012-10-12 13:33:00
9:13 AM,30.2,24.8,80,30.43,10.0,Calm,Calm,-,N/A,,Clear,0,2012-10-12 14:13:00
9:33 AM,33.8,24.8,70,30.43,10.0,SSE,4.6,-,N/A,,Clear,150,2012-10-12 14:33:00
9:53 AM,37.4,23.0,56,30.42,10.0,SE,8.1,-,N/A,,Clear,130,2012-10-12 14:53:00
10:13 AM,37.4,23.0,56,30.42,10.0,ESE,6.9,-,N/A,,Clear,120,2012-10-12 15:13:00
10:33 AM,39.2,23.0,52,30.42,10.0,SSE,8.1,-,N/A,,Clear,150,2012-10-12 15:33:00
11:13 AM,42.8,21.2,42,30.40,10.0,ESE,12.7,18.4,N/A,,Clear,120,2012-10-12 16:13:00
11:33 AM,42.8,19.4,39,30.40,10.0,SE,9.2,-,N/A,,Clear,140,2012-10-12 16:33:00
12:13 PM,44.6,19.4,37,30.38,10.0,SSE,8.1,-,N/A,,Clear,160,2012-10-12 17:13:00
12:33 PM,46.4,19.4,34,30.36,10.0,South,10.4,-,N/A,,Clear,170,2012-10-12 17:33:00
12:53 PM,46.4,19.4,34,30.35,7.0,SSE,10.4,-,N/A,,Clear,150,2012-10-12 17:53:00
1:33 PM,48.2,15.8,27,30.33,10.0,SSE,12.7,16.1,N/A,,Clear,150,2012-10-12 18:33:00
1:53 PM,48.2,15.8,27,30.32,10.0,SE,11.5,17.3,N/A,,Clear,130,2012-10-12 18:53:00
2:13 PM,50.0,15.8,26,30.31,10.0,SE,11.5,17.3,N/A,,Clear,140,2012-10-12 19:13:00
2:33 PM,50.0,15.8,26,30.30,10.0,South,9.2,16.1,N/A,,Clear,170,2012-10-12 19:33:00
2:53 PM,51.8,15.8,24,30.28,7.0,South,12.7,17.3,N/A,,Clear,170,2012-10-12 19:53:00
3:13 PM,51.8,15.8,24,30.28,7.0,SSE,10.4,17.3,N/A,,Clear,160,2012-10-12 20:13:00
3:33 PM,51.8,15.8,24,30.27,10.0,SE,12.7,18.4,N/A,,Clear,140,2012-10-12 20:33:00
3:53 PM,51.8,15.8,24,30.26,10.0,South,11.5,18.4,N/A,,Clear,180,2012-10-12 20:53:00
4:13 PM,51.8,17.6,26,30.25,7.0,SSE,10.4,-,N/A,,Clear,160,2012-10-12 21:13:00
4:33 PM,51.8,17.6,26,30.24,7.0,South,13.8,18.4,N/A,,Clear,180,2012-10-12 21:33:00
5:12 PM,50.0,17.6,28,30.22,7.0,South,11.5,17.3,N/A,,Clear,170,2012-10-12 22:12:00
5:53 PM,48.2,17.6,30,30.20,10.0,SSE,9.2,-,N/A,,Clear,160,2012-10-12 22:53:00
6:13 PM,48.2,17.6,30,30.19,10.0,SSE,6.9,-,N/A,,Clear,160,2012-10-12 23:13:00
6:33 PM,46.4,17.6,32,30.17,10.0,SSE,6.9,-,N/A,,Clear,150,2012-10-12 23:33:00
6:52 PM,44.6,17.6,34,30.17,7.0,SSE,4.6,-,N/A,,Clear,150,2012-10-12 23:52:00
7:13 PM,44.6,17.6,34,30.15,10.0,SE,5.8,-,N/A,,Clear,130,2012-10-13 00:13:00
7:33 PM,42.8,17.6,36,30.14,10.0,SE,6.9,-,N/A,,Clear,130,2012-10-13 00:33:00
7:53 PM,42.8,17.6,36,30.13,10.0,SE,4.6,-,N/A,,Clear,130,2012-10-13 00:53:00
8:13 PM,42.8,17.6,36,30.13,10.0,SE,5.8,-,N/A,,Clear,140,2012-10-13 01:13:00
8:33 PM,41.0,17.6,39,30.11,10.0,SE,4.6,-,N/A,,Clear,130,2012-10-13 01:33:00
9:13 PM,42.8,17.6,36,30.11,10.0,SSE,6.9,-,N/A,,Mostly Cloudy,150,2012-10-13 02:13:00
9:33 PM,42.8,17.6,36,30.09,10.0,SE,6.9,-,N/A,,Overcast,130,2012-10-13 02:33:00
9:52 PM,44.6,17.6,34,30.09,10.0,SE,9.2,-,N/A,,Overcast,140,2012-10-13 02:52:00
10:13 PM,44.6,19.4,37,30.08,10.0,SSE,10.4,-,N/A,,Overcast,160,2012-10-13 03:13:00
10:53 PM,46.4,19.4,34,30.06,10.0,SSE,13.8,-,N/A,,Overcast,160,2012-10-13 03:53:00
11:33 PM,46.4,21.2,37,30.05,10.0,SSE,8.1,18.4,N/A,,Overcast,160,2012-10-13 04:33:00
11:53 PM,46.4,24.8,43,30.04,10.0,South,11.5,17.3,N/A,,Overcast,170,2012-10-13 04:53:00